Вернуться в каталог

DELTA 1 DEB

АктивенSSO
NORAD 21317·DEBRIS·🇺🇸 United States

Запущен Jun 12, 1975 с Vandenberg Space Force Base

Loading…

Ближайшие Пролёты (ближайшие 24 часа)

TLE

СвежийSource: Space-Track

Эпоха: Sep 13, 2026, 18:29 UTC

1 21317U 75052AK  26256.77059631  .00001260  00000-0  21492-2 0  9991
2 21317 100.0971 194.1865 0212220 109.9081 282.4611 13.38563016692316

Отслеживайте DELTA 1 DEB в реальном времени с AllMySat

Download on the App Store